Time,TemperatureF,DewpointF,PressureIn,WindDirection,WindDirectionDegrees,WindSpeedMPH,WindSpeedGustMPH,Humidity,HourlyPrecipIn,Conditions,Clouds,dailyrainin,SolarRadiationWatts/m^2,SoftwareType,DateUTC
2013-08-06 00:01:00,66.0,56.0,-100.00,ENE,63,2.0,4.0,69,0.00,,,0.00,0.000000,,2013-08-06 07:01:00,
2013-08-06 00:11:00,66.0,56.0,-100.00,ENE,63,2.0,4.0,69,0.00,,,0.00,0.000000,,2013-08-06 07:11:00,
2013-08-06 00:44:00,63.0,55.0,-100.00,NNE,29,0.0,3.0,75,0.00,,,0.00,0.000000,,2013-08-06 07:44:00,
2013-08-06 00:53:00,63.0,55.0,-100.00,NNE,29,0.0,3.0,75,0.00,,,0.00,0.000000,,2013-08-06 07:53:00,
2013-08-06 01:01:00,63.0,55.0,-100.00,NNE,29,0.0,3.0,75,0.00,,,0.00,0.000000,,2013-08-06 08:01:00,
2013-08-06 01:11:00,63.0,55.0,-100.00,NNE,29,0.0,3.0,75,0.00,,,0.00,0.000000,,2013-08-06 08:11:00,
2013-08-06 01:43:00,62.0,55.0,-100.00,ESE,122,1.0,3.0,78,0.00,,,0.00,0.000000,,2013-08-06 08:43:00,
2013-08-06 01:52:00,62.0,55.0,-100.00,ESE,122,1.0,3.0,78,0.00,,,0.00,0.000000,,2013-08-06 08:52:00,
2013-08-06 02:01:00,62.0,55.0,-100.00,ESE,122,1.0,3.0,78,0.00,,,0.00,0.000000,,2013-08-06 09:01:00,
2013-08-06 02:11:00,62.0,55.0,-100.00,ESE,122,1.0,3.0,78,0.00,,,0.00,0.000000,,2013-08-06 09:11:00,
2013-08-06 02:43:00,59.0,54.0,-100.00,NE,40,1.0,3.0,83,0.00,,,0.00,0.000000,,2013-08-06 09:43:00,
2013-08-06 02:52:00,59.0,54.0,-100.00,NE,40,1.0,3.0,83,0.00,,,0.00,0.000000,,2013-08-06 09:52:00,
2013-08-06 03:01:00,59.0,54.0,-100.00,NE,40,1.0,3.0,83,0.00,,,0.00,0.000000,,2013-08-06 10:01:00,
2013-08-06 03:11:00,59.0,54.0,-100.00,NE,40,1.0,3.0,83,0.00,,,0.00,0.000000,,2013-08-06 10:11:00,
2013-08-06 03:43:00,59.0,54.0,-100.00,SE,132,1.0,4.0,85,0.00,,,-99.99,0.000000,,2013-08-06 10:43:00,
2013-08-06 03:53:00,59.0,54.0,-100.00,SE,132,1.0,4.0,85,0.00,,,-99.99,0.000000,,2013-08-06 10:53:00,
2013-08-06 04:01:00,59.0,54.0,-100.00,SE,132,1.0,4.0,85,0.00,,,-99.99,0.000000,,2013-08-06 11:01:00,
2013-08-06 04:11:00,59.0,54.0,-100.00,SE,132,1.0,4.0,85,0.00,,,-99.99,0.000000,,2013-08-06 11:11:00,
2013-08-06 04:32:00,57.0,54.0,-100.00,ENE,76,1.0,3.0,90,0.00,,,0.00,0.000000,,2013-08-06 11:32:00,
2013-08-06 04:43:00,57.0,54.0,-100.00,ENE,76,1.0,3.0,90,0.00,,,0.00,0.000000,,2013-08-06 11:43:00,
2013-08-06 04:53:00,57.0,54.0,-100.00,ENE,76,1.0,3.0,90,0.00,,,0.00,0.000000,,2013-08-06 11:53:00,
2013-08-06 05:01:00,57.0,54.0,-100.00,ENE,76,1.0,3.0,90,0.00,,,0.00,0.000000,,2013-08-06 12:01:00,
2013-08-06 05:11:00,57.0,54.0,-100.00,ENE,76,1.0,3.0,90,0.00,,,0.00,0.000000,,2013-08-06 12:11:00,
2013-08-06 05:43:00,56.0,54.0,-100.00,NNE,19,1.0,4.0,93,0.00,,,0.00,0.000000,,2013-08-06 12:43:00,
2013-08-06 05:52:00,56.0,54.0,-100.00,NNE,19,1.0,4.0,93,0.00,,,0.00,0.000000,,2013-08-06 12:52:00,
2013-08-06 06:01:00,56.0,54.0,-100.00,NNE,19,1.0,4.0,93,0.00,,,0.00,0.000000,,2013-08-06 13:01:00,
2013-08-06 06:11:00,56.0,54.0,-100.00,NNE,19,1.0,4.0,93,0.00,,,0.00,0.000000,,2013-08-06 13:11:00,
2013-08-06 06:42:00,56.0,53.0,-100.00,ESE,112,1.0,4.0,90,0.00,,,0.00,1.000000,,2013-08-06 13:42:00,
2013-08-06 06:53:00,56.0,53.0,-100.00,ESE,112,1.0,4.0,90,0.00,,,0.00,1.000000,,2013-08-06 13:53:00,
2013-08-06 07:01:00,56.0,53.0,-100.00,ESE,112,1.0,4.0,90,0.00,,,0.00,1.000000,,2013-08-06 14:01:00,
2013-08-06 07:11:00,56.0,53.0,-100.00,ESE,112,1.0,4.0,90,0.00,,,0.00,1.000000,,2013-08-06 14:11:00,
2013-08-06 07:42:00,58.0,54.0,-100.00,ESE,110,0.0,0.0,87,0.00,,,0.00,55.000000,,2013-08-06 14:42:00,
2013-08-06 07:53:00,58.0,54.0,-100.00,ESE,110,0.0,0.0,87,0.00,,,0.00,55.000000,,2013-08-06 14:53:00,
2013-08-06 08:02:00,58.0,54.0,-100.00,ESE,110,0.0,0.0,87,0.00,,,0.00,55.000000,,2013-08-06 15:02:00,
2013-08-06 08:11:00,58.0,54.0,-100.00,ESE,110,0.0,0.0,87,0.00,,,0.00,55.000000,,2013-08-06 15:11:00,
2013-08-06 08:44:00,64.0,57.0,-100.00,WNW,296,2.0,3.0,78,0.00,,,0.00,250.000000,,2013-08-06 15:44:00,
2013-08-06 08:52:00,64.0,57.0,-100.00,WNW,296,2.0,3.0,78,0.00,,,0.00,250.000000,,2013-08-06 15:52:00,
2013-08-06 09:01:00,64.0,57.0,-100.00,WNW,296,2.0,3.0,78,0.00,,,0.00,250.000000,,2013-08-06 16:01:00,
2013-08-06 09:11:00,64.0,57.0,-100.00,WNW,296,2.0,3.0,78,0.00,,,0.00,250.000000,,2013-08-06 16:11:00,
2013-08-06 09:43:00,71.0,56.0,-100.00,SW,224,3.0,5.0,59,0.00,,,0.00,446.000000,,2013-08-06 16:43:00,
2013-08-06 09:52:00,71.0,56.0,-100.00,SW,224,3.0,5.0,59,0.00,,,0.00,446.000000,,2013-08-06 16:52:00,
2013-08-06 10:02:00,71.0,56.0,-100.00,SW,224,3.0,5.0,59,0.00,,,0.00,446.000000,,2013-08-06 17:02:00,
2013-08-06 10:11:00,71.0,56.0,-100.00,SW,224,3.0,5.0,59,0.00,,,0.00,446.000000,,2013-08-06 17:11:00,
2013-08-06 10:44:00,76.0,58.0,-100.00,West,273,4.0,9.0,54,0.00,,,-99.99,635.000000,,2013-08-06 17:44:00,
2013-08-06 10:52:00,76.0,58.0,-100.00,West,273,4.0,9.0,54,0.00,,,-99.99,635.000000,,2013-08-06 17:52:00,
2013-08-06 11:01:00,76.0,58.0,-100.00,West,273,4.0,9.0,54,0.00,,,-99.99,635.000000,,2013-08-06 18:01:00,
2013-08-06 11:11:00,76.0,58.0,-100.00,West,273,4.0,9.0,54,0.00,,,-99.99,635.000000,,2013-08-06 18:11:00,
2013-08-06 11:44:00,80.0,57.0,-100.00,WSW,247,6.0,11.0,46,0.00,,,0.00,787.000000,,2013-08-06 18:44:00,
2013-08-06 11:52:00,80.0,57.0,-100.00,WSW,247,6.0,11.0,46,0.00,,,0.00,787.000000,,2013-08-06 18:52:00,
2013-08-06 12:01:00,80.0,57.0,-100.00,WSW,247,6.0,11.0,46,0.00,,,0.00,787.000000,,2013-08-06 19:01:00,
2013-08-06 12:11:00,80.0,57.0,-100.00,WSW,247,6.0,11.0,46,0.00,,,0.00,787.000000,,2013-08-06 19:11:00,
2013-08-06 12:42:00,83.0,51.0,-100.00,NNW,338,6.0,12.0,33,0.00,,,0.00,916.000000,,2013-08-06 19:42:00,
2013-08-06 12:52:00,83.0,51.0,-100.00,NNW,338,6.0,12.0,33,0.00,,,0.00,916.000000,,2013-08-06 19:52:00,
2013-08-06 13:01:00,83.0,51.0,-100.00,NNW,338,6.0,12.0,33,0.00,,,0.00,916.000000,,2013-08-06 20:01:00,
2013-08-06 13:11:00,83.0,51.0,-100.00,NNW,338,6.0,12.0,33,0.00,,,0.00,916.000000,,2013-08-06 20:11:00,
2013-08-06 13:44:00,86.0,50.0,-100.00,NW,309,7.0,12.0,29,0.00,,,0.00,988.000000,,2013-08-06 20:44:00,
2013-08-06 13:52:00,86.0,50.0,-100.00,NW,309,7.0,12.0,29,0.00,,,0.00,988.000000,,2013-08-06 20:52:00,
2013-08-06 14:01:00,86.0,50.0,-100.00,NW,309,7.0,12.0,29,0.00,,,0.00,988.000000,,2013-08-06 21:01:00,
2013-08-06 14:11:00,86.0,50.0,-100.00,NW,309,7.0,12.0,29,0.00,,,0.00,988.000000,,2013-08-06 21:11:00,
2013-08-06 14:43:00,87.0,46.0,-100.00,NW,319,7.0,19.0,24,0.00,,,0.00,971.000000,,2013-08-06 21:43:00,
2013-08-06 14:52:00,87.0,46.0,-100.00,NW,319,7.0,19.0,24,0.00,,,0.00,971.000000,,2013-08-06 21:52:00,
2013-08-06 15:01:00,87.0,46.0,-100.00,NW,319,7.0,19.0,24,0.00,,,0.00,971.000000,,2013-08-06 22:01:00,
2013-08-06 15:11:00,87.0,46.0,-100.00,NW,319,7.0,19.0,24,0.00,,,0.00,971.000000,,2013-08-06 22:11:00,
2013-08-06 15:43:00,89.0,41.0,-100.00,NW,304,10.0,15.0,19,0.00,,,0.00,871.000000,,2013-08-06 22:43:00,
2013-08-06 15:53:00,89.0,41.0,-100.00,NW,304,10.0,15.0,19,0.00,,,0.00,871.000000,,2013-08-06 22:53:00,
2013-08-06 16:01:00,89.0,41.0,-100.00,NW,304,10.0,15.0,19,0.00,,,0.00,871.000000,,2013-08-06 23:01:00,
2013-08-06 16:11:00,89.0,41.0,-100.00,NW,304,10.0,15.0,19,0.00,,,0.00,871.000000,,2013-08-06 23:11:00,
2013-08-06 16:33:00,90.0,42.0,-100.00,WNW,300,9.0,15.0,19,0.00,,,0.00,798.000000,,2013-08-06 23:33:00,
2013-08-06 16:43:00,90.0,42.0,-100.00,WNW,300,9.0,15.0,19,0.00,,,0.00,798.000000,,2013-08-06 23:43:00,
2013-08-06 16:52:00,90.0,42.0,-100.00,WNW,300,9.0,15.0,19,0.00,,,0.00,798.000000,,2013-08-06 23:52:00,
2013-08-06 17:01:00,90.0,42.0,-100.00,WNW,300,9.0,15.0,19,0.00,,,0.00,798.000000,,2013-08-07 00:01:00,
2013-08-06 17:11:00,90.0,42.0,-100.00,WNW,300,9.0,15.0,19,0.00,,,0.00,798.000000,,2013-08-07 00:11:00,
2013-08-06 17:43:00,91.0,40.0,-100.00,NW,308,9.0,16.0,17,0.00,,,0.00,641.000000,,2013-08-07 00:43:00,
2013-08-06 17:52:00,91.0,40.0,-100.00,NW,308,9.0,16.0,17,0.00,,,0.00,641.000000,,2013-08-07 00:52:00,
2013-08-06 18:01:00,91.0,40.0,-100.00,NW,308,9.0,16.0,17,0.00,,,0.00,641.000000,,2013-08-07 01:01:00,
2013-08-06 18:11:00,91.0,40.0,-100.00,NW,308,9.0,16.0,17,0.00,,,0.00,641.000000,,2013-08-07 01:11:00,
2013-08-06 18:43:00,90.0,38.0,-100.00,WNW,302,9.0,14.0,16,0.00,,,0.00,444.000000,,2013-08-07 01:43:00,
2013-08-06 18:52:00,90.0,38.0,-100.00,WNW,302,9.0,14.0,16,0.00,,,0.00,444.000000,,2013-08-07 01:52:00,
2013-08-06 19:02:00,90.0,38.0,-100.00,WNW,302,9.0,14.0,16,0.00,,,0.00,444.000000,,2013-08-07 02:02:00,
2013-08-06 19:11:00,90.0,38.0,-100.00,WNW,302,9.0,14.0,16,0.00,,,0.00,444.000000,,2013-08-07 02:11:00,
2013-08-06 19:43:00,88.0,38.0,-100.00,NW,312,7.0,13.0,17,0.00,,,0.00,272.000000,,2013-08-07 02:43:00,
2013-08-06 19:53:00,88.0,38.0,-100.00,NW,312,7.0,13.0,17,0.00,,,0.00,272.000000,,2013-08-07 02:53:00,
2013-08-06 20:01:00,88.0,38.0,-100.00,NW,312,7.0,13.0,17,0.00,,,0.00,272.000000,,2013-08-07 03:01:00,
2013-08-06 20:11:00,88.0,38.0,-100.00,NW,312,7.0,13.0,17,0.00,,,0.00,272.000000,,2013-08-07 03:11:00,
2013-08-06 20:32:00,84.0,40.0,-100.00,NW,321,1.0,9.0,21,0.00,,,0.00,99.000000,,2013-08-07 03:32:00,
2013-08-06 20:43:00,84.0,40.0,-100.00,NW,321,1.0,9.0,21,0.00,,,0.00,99.000000,,2013-08-07 03:43:00,
2013-08-06 20:52:00,84.0,40.0,-100.00,NW,321,1.0,9.0,21,0.00,,,0.00,99.000000,,2013-08-07 03:52:00,
2013-08-06 21:01:00,84.0,40.0,-100.00,NW,321,1.0,9.0,21,0.00,,,0.00,99.000000,,2013-08-07 04:01:00,
2013-08-06 21:11:00,84.0,40.0,-100.00,NW,321,1.0,9.0,21,0.00,,,0.00,99.000000,,2013-08-07 04:11:00,
2013-08-06 21:33:00,73.0,47.0,-100.00,SSE,162,3.0,5.0,40,0.00,,,0.00,8.000000,,2013-08-07 04:33:00,
2013-08-06 21:43:00,73.0,47.0,-100.00,SSE,162,3.0,5.0,40,0.00,,,0.00,8.000000,,2013-08-07 04:43:00,
2013-08-06 21:52:00,73.0,47.0,-100.00,SSE,162,3.0,5.0,40,0.00,,,0.00,8.000000,,2013-08-07 04:52:00,
2013-08-06 22:02:00,73.0,47.0,-100.00,SSE,162,3.0,5.0,40,0.00,,,0.00,8.000000,,2013-08-07 05:02:00,
2013-08-06 22:11:00,73.0,47.0,-100.00,SSE,162,3.0,5.0,40,0.00,,,0.00,8.000000,,2013-08-07 05:11:00,
2013-08-06 22:32:00,71.0,48.0,-100.00,SE,142,3.0,7.0,44,0.00,,,0.00,0.000000,,2013-08-07 05:32:00,
2013-08-06 22:43:00,71.0,48.0,-100.00,SE,142,3.0,7.0,44,0.00,,,0.00,0.000000,,2013-08-07 05:43:00,
2013-08-06 22:52:00,71.0,48.0,-100.00,SE,142,3.0,7.0,44,0.00,,,0.00,0.000000,,2013-08-07 05:52:00,
2013-08-06 23:02:00,71.0,48.0,-100.00,SE,142,3.0,7.0,44,0.00,,,0.00,0.000000,,2013-08-07 06:02:00,
2013-08-06 23:11:00,71.0,48.0,-100.00,SE,142,3.0,7.0,44,0.00,,,0.00,0.000000,,2013-08-07 06:11:00,
2013-08-06 23:43:00,65.0,47.0,-100.00,NE,55,2.0,5.0,53,0.00,,,0.00,0.000000,,2013-08-07 06:43:00,
2013-08-06 23:52:00,65.0,47.0,-100.00,NE,55,2.0,5.0,53,0.00,,,0.00,0.000000,,2013-08-07 06:52:00,